Jackson, MS

10:54 PM CDT on April 24, 2017 (GMT -0500)
Jackson-Evers International

Weather History for KJAN - August, 2013

Change the Weather History Date:

Sunday, August 18, 2013

  Actual Average Record
Temperature  
Mean Temperature 75 °F 81 °F  
Max Temperature 81 °F 92 °F 105 °F (1909)
Min Temperature 69 °F 71 °F 60 °F (1992)
Degree Days  
Heating Degree Days 0 0  
Month to date heating degree days 0 0  
Since 1 June heating degree days 0 0  
Since 1 July heating degree days 0 0  
Cooling Degree Days 10 16  
Month to date cooling degree days 330 303  
Year to date cooling degree days 1571 1598  
Since 1 June cooling degree days 1253 1240  
Growing Degree Days 25 (Base 50)    
Moisture  
Dew Point 68 °F    
Average Humidity 80    
Maximum Humidity 97    
Minimum Humidity 62    
Precipitation  
Precipitation T in 0.13 in 2.91 in (1969)
Month to date precipitation 1.66 2.69  
Year to date precipitation 42.36 35.73  
Sea Level Pressure  
Sea Level Pressure 30.04 in    
Wind  
Wind Speed 7 mph (NE)    
Max Wind Speed 14 mph    
Max Gust Speed 20 mph    
Visibility 10 miles    
Events      
T = Trace of Precipitation, MM = Missing Value Source: NWS Daily Summary

Daily Weather History Graph

Daily Weather History Graph

Search for Another Location

Airport or City:

Trip Planner

Search our weather history database for the weather conditions in past years. The results will help you decide how hot, cold, wet, or windy it might be!

Date:

Astronomy

Aug. 18, 2013 Rise Set
Actual Time 6:26 AM CDT 7:41 PM CDT
Civil Twilight 6:00 AM CDT 8:06 PM CDT
Nautical Twilight 5:30 AM CDT 8:37 PM CDT
Astronomical Twilight 4:58 AM CDT 9:08 PM CDT
Moon 5:44 PM CDT (8/18) 3:40 AM CDT (8/18)
Length of Visible Light 14h 05m
Length of Day
13h 14m
Waxing Gibbous, 92% of the Moon is Illuminated
Aug 18
Waxing Gibbous
Aug 20
Full
Aug 28
Last Quarter
Sep 5
New
Sep 12
First Quarter

Hourly Weather History & Observations

Time (CDT) Temp. Heat Index Dew Point Humidity Pressure Visibility Wind Dir Wind Speed Gust Speed Precip Events Conditions
12:54 AM 69.1 °F - 66.0 °F 90% 30.01 in 7.0 mi Calm Calm - N/A   Clear
1:36 AM 69.8 °F - 66.2 °F 88% 30.02 in 7.0 mi North 3.5 mph - N/A   Scattered Clouds
1:44 AM 69.8 °F - 66.2 °F 88% 30.02 in 7.0 mi Calm Calm - N/A   Mostly Cloudy
1:54 AM 70.0 °F - 68.0 °F 93% 30.01 in 7.0 mi ENE 3.5 mph - N/A   Overcast
2:54 AM 70.0 °F - 68.0 °F 93% 30.01 in 8.0 mi NNE 4.6 mph - N/A   Overcast
3:54 AM 70.0 °F - 66.9 °F 90% 30.01 in 10.0 mi ENE 3.5 mph - N/A   Overcast
4:54 AM 70.0 °F - 66.9 °F 90% 30.02 in 10.0 mi ENE 5.8 mph - 0.01 in   Overcast
5:54 AM 70.0 °F - 66.9 °F 90% 30.04 in 10.0 mi ENE 6.9 mph - 0.01 in   Overcast
6:15 AM 69.8 °F - 66.2 °F 88% 30.05 in 10.0 mi NE 4.6 mph - N/A   Overcast
6:24 AM 69.8 °F - 66.2 °F 88% 30.05 in 10.0 mi ENE 4.6 mph - N/A   Overcast
6:46 AM 69.8 °F - 66.2 °F 88% 30.05 in 10.0 mi NNE 5.8 mph - N/A   Overcast
6:54 AM 70.0 °F - 66.9 °F 90% 30.04 in 10.0 mi NE 5.8 mph - N/A   Mostly Cloudy
7:26 AM 71.6 °F - 66.2 °F 83% 30.05 in 10.0 mi NE 3.5 mph - N/A   Scattered Clouds
7:54 AM 71.1 °F - 66.0 °F 84% 30.04 in 10.0 mi ENE 9.2 mph - N/A   Scattered Clouds
8:07 AM 71.6 °F - 66.2 °F 83% 30.05 in 10.0 mi ENE 9.2 mph - N/A   Mostly Cloudy
8:54 AM 72.0 °F - 66.9 °F 84% 30.05 in 10.0 mi NNE 9.2 mph - N/A   Overcast
9:54 AM 73.9 °F - 66.9 °F 79% 30.06 in 10.0 mi NNE 9.2 mph - N/A   Overcast
10:28 AM 75.2 °F - 66.2 °F 73% 30.09 in 10.0 mi East 10.4 mph - N/A   Overcast
10:54 AM 75.9 °F - 66.9 °F 74% 30.07 in 10.0 mi ENE 9.2 mph - N/A   Overcast
11:54 AM 79.0 °F - 66.9 °F 66% 30.06 in 10.0 mi East 8.1 mph - N/A   Overcast
12:19 PM 77.0 °F - 66.2 °F 69% 30.07 in 10.0 mi East 9.2 mph - N/A   Overcast
12:50 PM 80.6 °F 82.7 °F 66.2 °F 61% 30.06 in 10.0 mi NNE 6.9 mph - N/A   Overcast
12:54 PM 81.0 °F 83.3 °F 66.9 °F 62% 30.05 in 10.0 mi NNE 10.4 mph - N/A   Overcast
1:54 PM 80.1 °F 82.3 °F 66.9 °F 64% 30.04 in 10.0 mi ENE 5.8 mph - N/A   Overcast
2:11 PM 78.8 °F - 66.2 °F 65% 30.05 in 10.0 mi East 13.8 mph - N/A   Overcast
2:37 PM 78.8 °F - 69.8 °F 74% 30.04 in 10.0 mi ENE 5.8 mph - N/A   Overcast
2:54 PM 78.1 °F - 69.1 °F 74% 30.02 in 10.0 mi NE 10.4 mph - N/A   Overcast
3:54 PM 77.0 °F - 70.0 °F 79% 30.01 in 10.0 mi NE 10.4 mph - 0.00 in   Overcast
4:42 PM 75.2 °F - 71.6 °F 89% 30.02 in 10.0 mi ENE 3.5 mph - 0.00 in   Overcast
4:54 PM 78.1 °F - 70.0 °F 76% 30.01 in 10.0 mi NE 6.9 mph - 0.00 in   Overcast
5:24 PM 77.0 °F - 69.8 °F 78% 30.02 in 10.0 mi ENE 6.9 mph - N/A   Overcast
5:47 PM 77.0 °F - 69.8 °F 78% 30.02 in 10.0 mi East 6.9 mph - N/A   Overcast
5:54 PM 78.1 °F - 70.0 °F 76% 30.01 in 10.0 mi East 9.2 mph - N/A   Overcast
6:54 PM 77.0 °F - 69.1 °F 76% 30.01 in 10.0 mi ENE 4.6 mph - N/A   Overcast
7:54 PM 75.0 °F - 70.0 °F 84% 30.01 in 10.0 mi East 4.6 mph - 0.01 in   Overcast
8:54 PM 73.0 °F - 70.0 °F 90% 30.03 in 10.0 mi ENE 3.5 mph - N/A   Mostly Cloudy
9:05 PM 73.4 °F - 69.8 °F 88% 30.03 in 10.0 mi NNE 3.5 mph - N/A   Mostly Cloudy
9:54 PM 73.0 °F - 70.0 °F 90% 30.04 in 10.0 mi NE 8.1 mph - N/A   Mostly Cloudy
10:10 PM 73.4 °F - 69.8 °F 88% 30.04 in 10.0 mi NNE 4.6 mph - N/A   Mostly Cloudy
10:25 PM 73.4 °F - 69.8 °F 88% 30.04 in 10.0 mi NE 5.8 mph - N/A   Overcast
10:54 PM 73.0 °F - 70.0 °F 90% 30.04 in 10.0 mi NNE 4.6 mph - N/A   Overcast
11:12 PM 73.4 °F - 69.8 °F 88% 30.05 in 10.0 mi NNE 5.8 mph - N/A   Overcast
11:20 PM 73.4 °F - 69.8 °F 88% 30.05 in 10.0 mi NNE 3.5 mph - N/A   Overcast
11:26 PM 73.4 °F - 69.8 °F 88% 30.04 in 10.0 mi NNE 4.6 mph - N/A   Overcast
11:54 PM 73.0 °F - 70.0 °F 90% 30.03 in 10.0 mi NE 5.8 mph - N/A   Overcast